Weather History for Blythe, CA

Change the Weather History Date:

Thursday, September 26, 2013

  Actual Average Record
Temperature  
Mean Temperature 75 °F -  
Max Temperature 86 °F 97 °F 109 °F (2009)
Min Temperature 64 °F 68 °F 53 °F (1971)
Cooling Degree Days 10    
Growing Degree Days 25 (Base 50)    
Moisture  
Dew Point 30 °F    
Average Humidity 19    
Maximum Humidity 33    
Minimum Humidity 13    
Precipitation  
Precipitation 0.00 in - - ()
Sea Level Pressure  
Sea Level Pressure 29.66 in    
Wind  
Wind Speed 10 mph (NW)    
Max Wind Speed 25 mph    
Max Gust Speed 29 mph    
Visibility 10 miles    
Events      
Averages and records for this station are not official NWS values.
T = Trace of Precipitation, MM = Missing Value Source: NWS Daily Summary

Daily Weather History Graph

Daily Weather History Graph

Search for Another Location

Airport:

Trip Planner

Search our weather history database for the weather conditions in past years. The results will help you decide how hot, cold, wet, or windy it might be!

Date:

Astronomy

Sep. 26, 2013 Rise Set
Actual Time 6:29 AM PDT 6:29 PM PDT
Civil Twilight 6:05 AM PDT 6:54 PM PDT
Nautical Twilight 5:36 AM PDT 7:23 PM PDT
Astronomical Twilight 5:07 AM PDT 7:52 PM PDT
Moon 11:45 PM PDT (9/26) 1:10 PM PDT (9/26)
Length of Visible Light 12h 49m
Length of Day
11h 59m
Waning Gibbous, 53% of the Moon is Illuminated
Sep 26
Waning Gibbous
Sep 26
Last Quarter
Oct 4
New
Oct 11
First Quarter
Oct 18
Full

Hourly Weather History & Observations

Time (PDT) Temp. Dew Point Humidity Pressure Visibility Wind Dir Wind Speed Gust Speed Precip Events Conditions
12:52 AM 75.0 °F 26.1 °F 16% 29.57 in 10.0 mi South 16.1 mph - N/A   Clear
1:52 AM 73.9 °F 24.1 °F 16% 29.58 in 10.0 mi SSW 13.8 mph - N/A   Clear
2:52 AM 72.0 °F 24.1 °F 17% 29.58 in 10.0 mi SSW 8.1 mph - N/A   Clear
3:52 AM 72.0 °F 24.1 °F 17% 29.58 in 10.0 mi SSW 8.1 mph - N/A   Clear
4:52 AM 68.0 °F 27.0 °F 21% 29.59 in 10.0 mi WNW 5.8 mph - N/A   Clear
5:52 AM 68.0 °F 35.1 °F 30% 29.61 in 10.0 mi NW 10.4 mph - N/A   Clear
6:52 AM 64.9 °F 35.1 °F 33% 29.63 in 10.0 mi NW 8.1 mph - N/A   Clear
7:52 AM 69.1 °F 37.0 °F 31% 29.65 in 10.0 mi NNW 5.8 mph - N/A   Clear
8:52 AM 73.0 °F 36.0 °F 26% 29.67 in 10.0 mi NNE 4.6 mph - N/A   Clear
9:52 AM 75.9 °F 36.0 °F 23% 29.68 in 10.0 mi NE 6.9 mph - N/A   Clear
10:52 AM 77.0 °F 36.0 °F 23% 29.68 in 10.0 mi Calm Calm - N/A   Clear
11:52 AM 80.1 °F 35.1 °F 20% 29.67 in 10.0 mi Variable 4.6 mph - N/A   Clear
12:52 PM 81.0 °F 35.1 °F 19% 29.66 in 10.0 mi West 8.1 mph - N/A   Clear
1:52 PM 81.0 °F 34.0 °F 18% 29.65 in 10.0 mi Variable 5.8 mph 16.1 mph N/A   Clear
2:52 PM 84.9 °F 30.0 °F 14% 29.64 in 10.0 mi WSW 11.5 mph 20.7 mph N/A   Clear
3:52 PM 86.0 °F 30.0 °F 13% 29.64 in 10.0 mi West 17.3 mph - N/A   Clear
4:52 PM 84.0 °F 28.9 °F 14% 29.65 in 10.0 mi WSW 8.1 mph - N/A   Clear
5:52 PM 81.0 °F 26.1 °F 13% 29.66 in 10.0 mi North 25.3 mph 28.8 mph N/A   Clear
6:52 PM 78.1 °F 25.0 °F 14% 29.67 in 10.0 mi NNW 13.8 mph - N/A   Clear
7:52 PM 75.9 °F 25.0 °F 15% 29.70 in 10.0 mi NNW 9.2 mph - N/A   Clear
8:52 PM 73.0 °F 26.1 °F 17% 29.72 in 10.0 mi North 4.6 mph - N/A   Clear
9:52 PM 72.0 °F 26.1 °F 18% 29.74 in 10.0 mi NNW 4.6 mph - N/A   Clear
10:52 PM 69.1 °F 25.0 °F 19% 29.75 in 10.0 mi North 6.9 mph - N/A   Clear
11:52 PM 66.9 °F 24.1 °F 20% 29.76 in 10.0 mi North 5.8 mph - N/A   Clear